| time (UTC) | temp F | wind direction | speed knots | gust knots | rain 1hr in | rain 24hr in | rain mn in | humidity % | barometer mb |
| 20260905190012 | 76 | 82 | 0.9 | 7.8 | 0.00 | 0.00 | 0.00 | 90 | 1014.6 |
| 20260905184511 | 76 | 32 | 3.5 | 7.0 | 0.00 | 0.00 | 0.00 | 91 | 1014.3 |
| 20260905183008 | 75 | 86 | 3.5 | 7.8 | 0.00 | 0.00 | 0.00 | 92 | 1014.1 |
| 20260905181509 | 75 | 79 | 2.6 | 8.7 | 0.00 | 0.00 | 0.00 | 92 | 1014.4 |
| 20260905180007 | 75 | 74 | 3.5 | 7.8 | 0.00 | 0.00 | 0.00 | 92 | 1014.6 |
| 20260905174508 | 75 | 84 | 2.6 | 5.2 | 0.00 | 0.00 | 0.00 | 94 | 1015.2 |
| 20260905173005 | 74 | 89 | 2.6 | 5.2 | 0.00 | 0.00 | 0.00 | 95 | 1015.8 |
| 20260905171512 | 73 | 67 | 2.6 | 5.2 | 0.00 | 0.00 | 0.00 | 96 | 1015.9 |
| 20260905170005 | 72 | 63 | 1.7 | 6.1 | 0.00 | 0.00 | 0.00 | 97 | 1016.2 |
| 20260905164506 | 72 | 36 | 1.7 | 2.6 | 0.00 | 0.00 | 0.00 | 97 | 1016.6 |
| 20260905163003 | 72 | 264 | 0.0 | 1.7 | 0.00 | 0.00 | 0.00 | 97 | 1016.8 |
| 20260905161503 | 72 | 255 | 0.0 | 0.0 | 0.00 | 0.00 | 0.00 | 97 | 1016.8 |
| 20260905160005 | 72 | 253 | 1.7 | 4.3 | 0.00 | 0.00 | 0.00 | 96 | 1017.1 |
| 20260905154604 | 72 | 75 | 0.0 | 0.0 | 0.00 | 0.00 | 0.00 | 97 | 1016.3 |
| 20260905153100 | 71 | 89 | 0.0 | 0.0 | 0.00 | 0.00 | 0.00 | 97 | 1016.3 |
| 20260905151558 | 71 | 89 | 0.0 | 0.0 | 0.00 | 0.00 | 0.00 | 97 | 1016.2 |
| 20260905150059 | 71 | 89 | 0.0 | 2.6 | 0.00 | 0.00 | 0.00 | 97 | 1016.0 |
| 20260905144555 | 71 | 36 | 1.7 | 4.3 | 0.00 | 0.00 | 0.00 | 96 | 1015.6 |
| 20260905143056 | 71 | 44 | 0.9 | 3.5 | 0.00 | 0.00 | 0.00 | 97 | 1015.6 |
| 20260905141552 | 70 | 38 | 1.7 | 4.3 | 0.00 | 0.00 | 0.00 | 97 | 1015.3 |
| 20260905140051 | 70 | 32 | 0.9 | 4.3 | 0.00 | 0.00 | 0.00 | 97 | 1015.2 |
| 20260905134556 | 70 | 32 | 1.7 | 4.3 | 0.00 | 0.00 | 0.00 | 96 | 1015.0 |
| 20260905133048 | 70 | 62 | 0.0 | 0.0 | 0.00 | 0.00 | 0.00 | 96 | 1015.0 |
| 20260905131551 | 70 | 62 | 0.0 | 0.0 | 0.00 | 0.00 | 0.00 | 96 | 1014.7 |
| 20260905130045 | 70 | 62 | 0.0 | 1.7 | 0.00 | 0.00 | 0.00 | 96 | 1014.7 |
| 20260905123040 | 70 | 86 | 1.7 | 4.3 | 0.00 | 0.00 | 0.00 | 96 | 1014.1 |
| 20260905121538 | 70 | 71 | 0.9 | 2.6 | 0.00 | 0.00 | 0.00 | 96 | 1013.7 |
| 20260905120036 | 70 | 91 | 0.9 | 2.6 | 0.00 | 0.00 | 0.00 | 96 | 1013.5 |
| 20260905114543 | 70 | 99 | 0.0 | 1.7 | 0.00 | 0.00 | 0.00 | 96 | 1013.2 |
| 20260905113038 | 70 | 92 | 0.9 | 2.6 | 0.00 | 0.00 | 0.00 | 96 | 1013.2 |
| 20260905111542 | 70 | 90 | 0.9 | 2.6 | 0.00 | 0.00 | 0.00 | 96 | 1013.4 |
| 20260905110035 | 70 | 89 | 1.7 | 5.2 | 0.00 | 0.00 | 0.00 | 96 | 1013.3 |
| 20260905104533 | 70 | 99 | 0.9 | 3.5 | 0.00 | 0.00 | 0.00 | 96 | 1013.0 |
| 20260905103033 | 70 | 86 | 1.7 | 4.3 | 0.00 | 0.00 | 0.00 | 96 | 1013.1 |
| 20260905101541 | 70 | 105 | 2.6 | 4.3 | 0.00 | 0.00 | 0.00 | 96 | 1013.0 |
| 20260905100030 | 70 | 94 | 1.7 | 4.3 | 0.00 | 0.00 | 0.00 | 96 | 1013.2 |
| 20260905094529 | 71 | 87 | 1.7 | 3.5 | 0.00 | 0.00 | 0.00 | 96 | 1013.3 |
| 20260905093028 | 71 | 93 | 0.9 | 3.5 | 0.00 | 0.00 | 0.00 | 96 | 1012.9 |
| 20260905091526 | 71 | 65 | 1.7 | 2.6 | 0.00 | 0.00 | 0.00 | 96 | 1012.4 |
| 20260905090023 | 71 | 70 | 1.7 | 3.5 | 0.00 | 0.00 | 0.00 | 96 | 1012.6 |
| 20260905084522 | 72 | 70 | 1.7 | 2.6 | 0.00 | 0.00 | 0.00 | 95 | 1012.7 |
| 20260905083027 | 72 | 40 | 0.9 | 1.7 | 0.00 | 0.00 | 0.00 | 95 | 1013.0 |
| 20260905081520 | 72 | 36 | 1.7 | 5.2 | 0.00 | 0.00 | 0.00 | 95 | 1013.0 |
| 20260905080020 | 72 | 42 | 1.7 | 4.3 | 0.00 | 0.00 | 0.00 | 95 | 1013.0 |
| 20260905074520 | 72 | 38 | 2.6 | 3.5 | 0.00 | 0.00 | 0.00 | 95 | 1013.0 |
| 20260905073023 | 72 | 75 | 1.7 | 3.5 | 0.00 | 0.00 | 0.00 | 95 | 1013.1 |
| 20260905071516 | 73 | 49 | 1.7 | 3.5 | 0.00 | 0.00 | 0.00 | 94 | 1012.9 |
| 20260905070016 | 73 | 68 | 1.7 | 2.6 | 0.00 | 0.00 | 0.00 | 94 | 1012.9 |
| 20260905064521 | 74 | 88 | 0.9 | 3.5 | 0.00 | 0.00 | 0.00 | 94 | 1012.8 |
| 20260905063011 | 74 | 86 | 0.9 | 2.6 | 0.00 | 0.00 | 0.00 | 94 | 1012.8 |
| 20260905061509 | 74 | 49 | 1.7 | 2.6 | 0.00 | 0.00 | 0.00 | 94 | 1013.0 |
| 20260905060015 | 74 | 54 | 0.9 | 2.6 | 0.00 | 0.00 | 0.00 | 93 | 1012.8 |
| 20260905054506 | 75 | 48 | 1.7 | 3.5 | 0.00 | 0.00 | 0.00 | 93 | 1012.8 |
| 20260905053003 | 75 | 39 | 2.6 | 4.3 | 0.00 | 0.00 | 0.00 | 93 | 1012.7 |
| 20260905051558 | 75 | 39 | 2.6 | 3.5 | 0.00 | 0.00 | 0.00 | 93 | 1012.5 |
| 20260905050054 | 76 | 48 | 2.6 | 4.3 | 0.00 | 0.00 | 0.00 | 93 | 1012.6 |
| 20260905044600 | 76 | 48 | 1.7 | 3.5 | 0.00 | 0.00 | 0.00 | 93 | 1012.7 |
| 20260905043053 | 76 | 49 | 2.6 | 5.2 | 0.00 | 0.00 | 0.00 | 92 | 1012.5 |
| 20260905041554 | 76 | 34 | 1.7 | 4.3 | 0.00 | 0.00 | 0.00 | 92 | 1012.7 |
| 20260905040051 | 77 | 33 | 2.6 | 5.2 | 0.00 | 0.00 | 0.00 | 91 | 1012.8 |
| 20260905034552 | 77 | 34 | 3.5 | 7.0 | 0.00 | 0.00 | 0.00 | 92 | 1012.7 |
| 20260905033049 | 78 | 27 | 5.2 | 7.8 | 0.00 | 0.00 | 0.00 | 92 | 1012.6 |
| 20260905031547 | 78 | 27 | 2.6 | 6.1 | 0.00 | 0.00 | 0.00 | 92 | 1012.5 |
| 20260905030052 | 79 | 25 | 2.6 | 5.2 | 0.00 | 0.00 | 0.00 | 91 | 1012.5 |
| 20260905024543 | 79 | 24 | 2.6 | 5.2 | 0.00 | 0.00 | 0.00 | 90 | 1012.1 |
| 20260905023041 | 80 | 21 | 1.7 | 3.5 | 0.00 | 0.00 | 0.00 | 89 | 1012.2 |
| 20260905021539 | 81 | 359 | 0.0 | 2.6 | 0.00 | 0.00 | 0.00 | 87 | 1012.0 |
| 20260905020054 | 82 | 189 | 0.9 | 1.7 | 0.00 | 0.00 | 0.00 | 84 | 1011.9 |
| 20260905014535 | 83 | 188 | 0.0 | 0.0 | 0.00 | 0.00 | 0.00 | 82 | 1011.7 |
| 20260905013039 | 84 | 188 | 0.0 | 0.0 | 0.00 | 0.00 | 0.00 | 81 | 1011.5 |
| 20260905011529 | 85 | 188 | 0.0 | 0.0 | 0.00 | 0.00 | 0.00 | 80 | 1011.2 |
| 20260905010028 | 86 | 188 | 0.0 | 0.0 | 0.00 | 0.00 | 0.00 | 78 | 1011.1 |
| 20260905004527 | 87 | 188 | 0.0 | 0.0 | 0.00 | 0.00 | 0.00 | 77 | 1011.2 |
| 20260905003025 | 87 | 188 | 0.0 | 0.0 | 0.00 | 0.00 | 0.00 | 75 | 1011.2 |
| 20260905001524 | 88 | 188 | 0.0 | 0.0 | 0.00 | 0.00 | 0.00 | 75 | 1011.0 |
| 20260905000021 | 89 | 188 | 0.0 | 0.0 | 0.00 | 0.00 | 0.00 | 74 | 1011.0 |
| 20260904234520 | 89 | 188 | 0.0 | 0.0 | 0.00 | 0.00 | 0.00 | 73 | 1010.8 |
| 20260904233013 | 91 | 189 | 0.0 | 0.0 | 0.00 | 0.00 | 0.00 | 72 | 1010.9 |
| 20260904231534 | 91 | 186 | 0.0 | 0.0 | 0.00 | 0.00 | 0.00 | 72 | 1011.0 |
| 20260904230030 | 93 | 187 | 0.0 | 0.0 | 0.00 | 0.00 | 0.00 | 68 | 1010.8 |
| 20260904224529 | 93 | 184 | 0.0 | 0.9 | 0.00 | 0.00 | 0.00 | 67 | 1010.7 |
| 20260904223028 | 94 | 197 | 0.0 | 1.7 | 0.00 | 0.00 | 0.00 | 66 | 1010.5 |
| 20260904221528 | 93 | 210 | 0.0 | 1.7 | 0.00 | 0.00 | 0.00 | 66 | 1010.5 |
| 20260904220027 | 93 | 235 | 0.9 | 3.5 | 0.00 | 0.00 | 0.00 | 66 | 1010.5 |
| 20260904214527 | 95 | 209 | 1.7 | 4.3 | 0.00 | 0.00 | 0.00 | 63 | 1010.5 |
| 20260904213029 | 97 | 207 | 0.0 | 1.7 | 0.00 | 0.00 | 0.00 | 63 | 1010.5 |
| 20260904211523 | 95 | 220 | 0.9 | 3.5 | 0.00 | 0.00 | 0.00 | 63 | 1010.5 |
| 20260904210026 | 97 | 176 | 0.0 | 0.9 | 0.00 | 0.00 | 0.00 | 64 | 1010.3 |
| 20260904204515 | 95 | 122 | 0.0 | 0.0 | 0.00 | 0.00 | 0.00 | 66 | 1010.4 |
| 20260904203013 | 94 | 94 | 0.0 | 0.0 | 0.00 | 0.00 | 0.00 | 67 | 1010.4 |
| 20260904201512 | 93 | 81 | 0.9 | 3.5 | 0.00 | 0.00 | 0.00 | 68 | 1010.5 |
| 20260904200009 | 95 | 122 | 0.0 | 0.0 | 0.00 | 0.00 | 0.00 | 66 | 1010.5 |
| 20260904194503 | 95 | 155 | 0.0 | 0.9 | 0.00 | 0.00 | 0.00 | 66 | 1010.4 |
| 20260904193100 | 94 | 86 | 0.0 | 3.5 | 0.00 | 0.00 | 0.00 | 68 | 1010.4 |
| 20260904191554 | 94 | 194 | 0.0 | 2.6 | 0.00 | 0.00 | 0.00 | 66 | 1010.5 |